[[{"header":{"parameterUnit":"m.s-1","parameterCategory":1,"la1":30.2991,"la2":30.254,"lo1":-89.0895,"lo2":-89.0444,"dx":0.0017,"dy":0.0017,"nx":28,"ny":28,"refTime":"2023-01-20T09:00:00:Z","depth":0,"parameterNumber":2,"parameterNumberName":"U-component_of_WINDS"},"data":[0,0,0,0,0,0,0,0,0,0,0,0,0,0,0,0,0,0,0,0,0,0,0,0,0,0,0,0,0,0,0,0,0,0,0,0,0,0,0,0,0,0,0,0,0,0,0,0,0,0,0,0,0,0,0,0,0,0,-4.2252,-4.2252,0,-4.2264,-4.2264,-4.2265,-4.2142,-4.2139,-4.2135,-4.2132,-4.2146,-4.2149,-4.2153,0,0,0,0,0,0,0,0,0,0,0,0,0,-4.2123,-4.2126,-4.2252,-4.2252,-4.2252,-4.2264,-4.2264,-4.2265,-4.2143,-4.2139,-4.2135,-4.2131,-4.2145,-4.2149,-4.2153,0,0,0,0,0,0,0,0,0,0,0,0,0,-4.2162,-4.2127,-4.2252,-4.2193,-4.2188,-4.2264,-4.2264,-4.2265,-4.2144,-4.2139,-4.2133,-4.2129,-4.2143,-4.2148,-4.2154,-4.2288,0,0,-4.217,-4.2172,0,0,0,0,0,0,0,0,-4.216,-4.2167,-4.2201,-4.2197,-4.2191,-4.2196,-4.2224,-4.2272,-4.2145,-4.216,-4.2132,-4.2126,-4.2167,-4.217,-4.2183,-4.2288,-4.2289,-4.217,-4.2173,-4.2176,-4.2177,0,0,0,0,0,0,0,-4.2157,-4.2165,-4.2257,-4.2202,-4.2196,-4.2166,-4.2166,-4.2233,-4.2192,-4.2159,-4.215,-4.2153,-4.2163,-4.2179,-4.2183,-4.2289,-4.217,-4.2175,-4.2178,-4.218,-4.2504,-4.251,0,0,0,0,0,0,-4.2162,-4.2164,-4.2256,-4.2257,-4.2163,-4.2172,-4.2172,-4.22,-4.2191,-4.2185,-4.2157,-4.2147,-4.2172,-4.2177,-4.2183,-4.2339,-4.2176,-4.2181,-4.2184,-4.2499,-4.2506,-4.2511,0,0,0,0,0,0,-4.216,-4.2172,-4.2256,-4.2208,-4.2217,-4.218,-4.2212,-4.2203,-4.2218,-4.219,-4.2182,-4.218,-4.2168,-4.2175,-4.2262,-4.2338,-4.2183,-4.2188,-4.2493,-4.2501,-4.2509,-4.2654,0,0,0,0,0,0,-4.2157,-4.2172,-4.2222,-4.221,-4.222,-4.2336,-4.2217,-4.2207,-4.2228,-4.2214,-4.221,-4.2204,-4.2165,-4.2255,-4.2268,-4.2342,-4.2192,-4.2486,-4.2496,-4.2506,-4.2642,-4.2666,-4.2686,0,0,0,0,0,-4.2153,-4.2263,-4.2226,-4.2237,-4.2282,-4.234,-4.2346,-4.2298,-4.2234,-4.2285,-4.2266,-4.2204,-4.2328,-4.2265,-4.2278,-4.2356,-4.2481,-4.2493,-4.2505,-4.2632,-4.2661,-4.2686,0,0,0,0,0,0,-4.2286,-4.226,-4.2219,-4.2328,-4.2337,-4.232,-4.2382,-4.2331,-4.2359,-4.2345,-4.2285,-4.2285,-4.2382,-4.2377,-4.2308,-4.2485,-4.2393,-4.2408,-4.2485,-4.2512,-4.2534,-4.2533,-4.2196,0,0,0,0,0,-4.2328,-4.2377,-4.2352,-4.2451,-4.2458,-4.242,-4.2443,-4.2406,-4.2413,-4.2416,-4.2404,-4.2414,-4.2454,-4.2483,-4.2519,-4.264,-4.2637,-4.27,-4.2722,-4.274,-4.2755,-4.2818,-4.2846,-4.2552,-4.2552,-4.2551,0,0,-4.2415,-4.2407,-4.2442,-4.2478,-4.248,-4.2533,-4.2424,-4.2484,-4.2522,-4.2425,-4.2507,-4.2499,-4.2505,-4.261,-4.2656,-4.2609,-4.2835,-4.2756,-4.277,-4.2775,-4.2834,-4.2862,-4.2886,-4.256,-4.2559,-4.2557,0,0,-4.2601,-4.26,-4.2683,-4.2687,-4.2693,-4.2666,-4.2686,-4.2676,-4.2667,-4.2747,-4.2676,-4.272,-4.2792,-4.28,-4.2813,-4.3001,-4.2945,-4.3015,-4.3131,-4.3193,-4.3217,-4.3237,-4.3305,-4.333,-4.3029,-4.3029,-4.3029,0,-4.271,-4.2786,-4.2732,-4.2797,-4.2815,-4.2728,-4.2811,-4.2819,-4.2836,-4.285,-4.2797,-4.2885,-4.2883,-4.2989,-4.3035,-4.3048,-4.3069,-4.3016,-4.3218,-4.3237,-4.3255,-4.3319,-4.3345,-4.3038,-4.3037,-4.3036,-4.3035,0,-4.2919,-4.2973,-4.3038,-4.3057,-4.3082,-4.3156,-4.3113,-4.3145,-4.3105,-4.3084,-4.3167,-4.3162,-4.3195,-4.3217,-4.3179,-4.3318,-4.3289,-4.3228,-4.3134,-4.3293,-4.3352,-4.3376,-4.305,-4.3047,-4.3044,-4.3042,0,0,-4.319,-4.3177,-4.3202,-4.3209,-4.3208,-4.3249,-4.3319,-4.3351,-4.3379,-4.3394,-4.3451,-4.3513,-4.3456,-4.3472,-4.3433,-4.3489,-4.3639,-4.3421,-4.342,-4.3462,-4.3791,-4.3838,-4.3867,-4.3601,-4.3605,-4.3609,-4.3791,0,-4.3372,-4.3491,-4.3444,-4.3566,-4.3615,-4.3534,-4.3594,-4.36,-4.3583,-4.3622,-4.3602,-4.3647,-4.3569,-4.3577,-4.3628,-4.361,-4.3704,-4.3596,-4.3654,-4.3657,-4.3656,-4.3898,-4.3947,-4.4119,-4.3813,-4.3817,-4.382,0,-4.3601,-4.3624,-4.3752,-4.3741,-4.376,-4.3816,-4.3841,-4.3879,-4.3884,-4.3867,-4.3885,-4.3834,-4.3901,-4.3808,-4.39,-4.3828,-4.3848,-4.3843,-4.3848,-4.3853,-4.3749,-4.391,-4.4173,-4.4199,-4.3856,-4.3853,-4.385,0,-4.3787,-4.385,-4.3934,-4.3943,-4.3933,-4.3974,-4.3972,-4.3972,-4.3994,-4.4016,-4.403,-4.406,-4.4077,-4.4101,-4.406,-4.3995,-4.4159,-4.4061,-4.4147,-4.4148,-4.4186,-4.4184,-4.4458,-4.4198,-4.4198,-4.4198,-4.4197,0,-4.3996,-4.4077,-4.4018,-4.407,-4.4159,-4.4103,-4.4193,-4.4181,-4.4182,-4.423,-4.4161,-4.4208,-4.415,-4.4192,-4.416,-4.4242,-4.4249,-4.4238,-4.4229,-4.4245,-4.4247,-4.4258,-4.4246,-4.4204,-4.4203,-4.4202,-4.42,0,-4.422,-4.4183,-4.427,-4.4253,-4.425,-4.4317,-4.4302,-4.435,-4.4326,-4.4389,-4.44,-4.4364,-4.4409,-4.437,-4.4414,-4.4392,-4.4501,-4.4474,-4.45,-4.4492,-4.4581,-4.4573,-4.4872,-4.4908,-4.4625,-4.4628,-4.463,0,-4.4356,-4.4416,-4.4406,-4.4433,-4.4435,-4.448,-4.4502,-4.445,-4.4476,-4.4486,-4.4532,-4.4571,-4.46,-4.4676,-4.4654,-4.4686,-4.466,-4.4763,-4.4665,-4.4679,-4.4663,-4.466,-4.4666,-4.4783,-4.4786,-4.4789,-4.4791,0,-4.4602,-4.458,-4.4615,-4.4643,-4.4671,-4.4691,-4.4705,-4.4732,-4.4678,-4.4711,-4.4756,-4.4778,-4.4822,-4.4862,-4.4887,-4.4885,-4.483,-4.4822,-4.4844,-4.4861,-4.4874,-4.4869,-4.4555,-4.4816,-4.4813,-4.4811,-4.481,-4.4809,-4.4786,-4.4836,-4.4836,-4.4877,-4.4882,-4.4897,-4.4941,-4.4922,-4.4959,-4.4991,-4.4957,-4.5012,-4.5015,-4.5043,-4.5048,-4.509,-4.5047,-4.5079,-4.5087,-4.5095,-4.5108,-4.4866,-4.5094,-4.5093,-4.5093,-4.5092,-4.5092,0,-4.5029,-4.5025,-4.5062,-4.5084,-4.5116,-4.506,-4.5073,-4.5104,-4.5153,-4.516,-4.5189,-4.5241,-4.5279,-4.526,-4.5292,-4.533,-4.5306,-4.5341,-4.5338,-4.5338,-4.5144,-4.5123,-4.536,-4.536,-4.536,-4.536,-4.536,-4.5359,-4.5159,-4.524,-4.5219,-4.5302,-4.5297,-4.535,-4.5363,-4.5376,-4.5381,-4.5442,-4.5473,-4.546,-4.5456,-4.5488,-4.552,-4.5514,-4.5529,-4.5574,-4.5558,-4.5378,-4.5352,-4.5327,-4.5306,-4.5577,-4.5578,-4.5748,-4.575,-4.5751]},{"header":{"parameterUnit":"m.s-1","parameterCategory":1,"la1":30.2991,"la2":30.254,"lo1":-89.0895,"lo2":-89.0444,"dx":0.0017,"dy":0.0017,"nx":28,"ny":28,"refTime":"2023-01-20T09:00:00:Z","depth":0,"parameterNumber":3,"parameterNumberName":"V-component_of_WINDS"},"data":[0,0,0,0,0,0,0,0,0,0,0,0,0,0,0,0,0,0,0,0,0,0,0,0,0,0,0,0,0,0,0,0,0,0,0,0,0,0,0,0,0,0,0,0,0,0,0,0,0,0,0,0,0,0,0,0,0,0,-3.8808,-3.8808,0,-3.885,-3.885,-3.8851,-3.8801,-3.8799,-3.8797,-3.8796,-3.8836,-3.8839,-3.8842,0,0,0,0,0,0,0,0,0,0,0,0,0,-3.8682,-3.8685,-3.8808,-3.8808,-3.8809,-3.885,-3.885,-3.8851,-3.8801,-3.8799,-3.8797,-3.8795,-3.8835,-3.8839,-3.8842,0,0,0,0,0,0,0,0,0,0,0,0,0,-3.8732,-3.8686,-3.8808,-3.8789,-3.8788,-3.8849,-3.885,-3.8851,-3.8802,-3.8799,-3.8796,-3.8794,-3.8834,-3.8838,-3.8842,-3.8923,0,0,-3.8855,-3.8857,0,0,0,0,0,0,0,0,-3.8729,-3.8736,-3.8792,-3.8791,-3.8789,-3.8817,-3.8821,-3.8875,-3.8803,-3.8797,-3.8796,-3.8792,-3.8832,-3.8836,-3.885,-3.8925,-3.8927,-3.8856,-3.8858,-3.886,-3.8861,0,0,0,0,0,0,0,-3.8726,-3.8734,-3.8824,-3.8792,-3.8791,-3.8778,-3.8782,-3.8831,-3.8829,-3.8797,-3.8793,-3.8799,-3.8831,-3.8846,-3.8851,-3.8927,-3.8855,-3.8859,-3.8862,-3.8863,-3.9069,-3.9072,0,0,0,0,0,0,-3.8725,-3.8732,-3.8823,-3.8826,-3.8752,-3.8782,-3.8787,-3.8811,-3.8828,-3.8829,-3.8801,-3.8797,-3.884,-3.8846,-3.8852,-3.8947,-3.886,-3.8864,-3.8866,-3.9066,-3.907,-3.9073,0,0,0,0,0,0,-3.8722,-3.8733,-3.8821,-3.8778,-3.8788,-3.8787,-3.8815,-3.8813,-3.8829,-3.8832,-3.8831,-3.8818,-3.8838,-3.8846,-3.8906,-3.8947,-3.8866,-3.8869,-3.9063,-3.9067,-3.9071,-3.9138,0,0,0,0,0,0,-3.8719,-3.8733,-3.8764,-3.8779,-3.879,-3.8876,-3.8818,-3.8816,-3.8836,-3.883,-3.8847,-3.8847,-3.8837,-3.89,-3.891,-3.8952,-3.8873,-3.9059,-3.9065,-3.907,-3.9132,-3.9144,-3.9155,0,0,0,0,0,-3.8714,-3.8781,-3.8766,-3.8778,-3.883,-3.8878,-3.8885,-3.8872,-3.884,-3.8871,-3.8873,-3.8846,-3.8941,-3.8906,-3.8917,-3.8961,-3.9056,-3.9063,-3.907,-3.9127,-3.9142,-3.9154,0,0,0,0,0,0,-3.8772,-3.8783,-3.8766,-3.884,-3.8859,-3.887,-3.8909,-3.8889,-3.8916,-3.891,-3.8892,-3.8896,-3.896,-3.8966,-3.8927,-3.9039,-3.8993,-3.9002,-3.9033,-3.9047,-3.9058,-3.9055,-3.8876,0,0,0,0,0,-3.8793,-3.8832,-3.8839,-3.8904,-3.8914,-3.891,-3.893,-3.8919,-3.8937,-3.8945,-3.8951,-3.8969,-3.9002,-3.9025,-3.9056,-3.9132,-3.9135,-3.9168,-3.9179,-3.9188,-3.9197,-3.9236,-3.9251,-3.9095,-3.9095,-3.9095,0,0,-3.8837,-3.8848,-3.8874,-3.8915,-3.8928,-3.8968,-3.8917,-3.8961,-3.899,-3.8951,-3.9008,-3.9013,-3.9032,-3.91,-3.913,-3.9107,-3.924,-3.9197,-3.9204,-3.9207,-3.9244,-3.9259,-3.9272,-3.9099,-3.9099,-3.9098,0,0,-3.8938,-3.8951,-3.9005,-3.9019,-3.9039,-3.9036,-3.9049,-3.9063,-3.9065,-3.9122,-3.9093,-3.9126,-3.9185,-3.9199,-3.9214,-3.9319,-3.9295,-3.9329,-3.9388,-3.9427,-3.9439,-3.945,-3.9486,-3.95,-3.9337,-3.9337,-3.9338,0,-3.899,-3.905,-3.9036,-3.9082,-3.91,-3.9067,-3.9121,-3.9135,-3.9164,-3.9177,-3.9151,-3.9223,-3.9233,-3.9304,-3.9329,-3.9343,-3.9356,-3.9328,-3.9438,-3.9449,-3.9459,-3.9494,-3.9507,-3.9341,-3.9341,-3.9341,-3.934,0,-3.9113,-3.9154,-3.9196,-3.9225,-3.9248,-3.9298,-3.929,-3.9315,-3.9301,-3.93,-3.9357,-3.9368,-3.9401,-3.9416,-3.9403,-3.9485,-3.947,-3.9441,-3.9395,-3.9478,-3.951,-3.9523,-3.9347,-3.9346,-3.9345,-3.9344,0,0,-3.9252,-3.9272,-3.9287,-3.93,-3.9319,-3.935,-3.9398,-3.943,-3.9451,-3.9472,-3.9511,-3.956,-3.9534,-3.9551,-3.9539,-3.9573,-3.9654,-3.954,-3.954,-3.956,-3.9742,-3.9764,-3.9779,-3.9638,-3.964,-3.9642,-3.9741,0,-3.9353,-3.9437,-3.9424,-3.9504,-3.9542,-3.9509,-3.9551,-3.9566,-3.9566,-3.9597,-3.9596,-3.9632,-3.9594,-3.9604,-3.9636,-3.9637,-3.969,-3.963,-3.9673,-3.9674,-3.9669,-3.9796,-3.9819,-3.9912,-3.9753,-3.9755,-3.9757,0,-3.9482,-3.9508,-3.9592,-3.9604,-3.9619,-3.9657,-3.9684,-3.9714,-3.973,-3.9728,-3.9746,-3.9727,-3.9773,-3.9726,-3.9788,-3.9748,-3.9764,-3.9767,-3.977,-3.9774,-3.9721,-3.9803,-3.9941,-3.9955,-3.9777,-3.9775,-3.9774,0,-3.9575,-3.963,-3.9687,-3.9699,-3.9714,-3.9741,-3.9749,-3.9762,-3.9782,-3.9805,-3.9818,-3.9846,-3.9862,-3.9884,-3.9873,-3.9839,-3.9937,-3.9889,-3.9935,-3.9936,-3.9958,-3.9957,-4.01,-3.9969,-3.9969,-3.9968,-3.9968,0,-3.9689,-3.9741,-3.9729,-3.9764,-3.9821,-3.9806,-3.9862,-3.9866,-3.9878,-3.9912,-3.9886,-3.9918,-3.9902,-3.9933,-3.9924,-3.9977,-3.9984,-3.9982,-3.9979,-3.9985,-3.9985,-3.9996,-3.9989,-3.9972,-3.9971,-3.997,-3.997,0,-3.9802,-3.9796,-3.9856,-3.9866,-3.9869,-3.9911,-3.9918,-3.9951,-3.9948,-3.9991,-4.0001,-3.9996,-4.0031,-4.0022,-4.006,-4.0054,-4.0121,-4.011,-4.0115,-4.0113,-4.016,-4.0155,-4.0315,-4.0335,-4.0191,-4.0193,-4.0194,0,-3.9876,-3.9915,-3.9929,-3.995,-3.996,-3.9994,-4.0014,-3.9999,-4.002,-4.0041,-4.007,-4.0103,-4.0128,-4.0185,-4.0185,-4.0213,-4.0203,-4.0257,-4.0207,-4.021,-4.0203,-4.0201,-4.0204,-4.0267,-4.0268,-4.027,-4.0271,0,-4.0006,-4.0001,-4.003,-4.0059,-4.0083,-4.0105,-4.0124,-4.0142,-4.0129,-4.0154,-4.0189,-4.0209,-4.0247,-4.0279,-4.0305,-4.0311,-4.0289,-4.0286,-4.0298,-4.0304,-4.0306,-4.0305,-4.0142,-4.0283,-4.0282,-4.0281,-4.028,-4.028,-4.0101,-4.0134,-4.0149,-4.0182,-4.0195,-4.0213,-4.0243,-4.0244,-4.0274,-4.0304,-4.0293,-4.0334,-4.0347,-4.0379,-4.0389,-4.0419,-4.0399,-4.0417,-4.0421,-4.0426,-4.0431,-4.0301,-4.0424,-4.0424,-4.0423,-4.0423,-4.0423,0,-4.023,-4.0237,-4.0268,-4.0295,-4.0321,-4.0298,-4.0317,-4.034,-4.0376,-4.0391,-4.0416,-4.0456,-4.0487,-4.0488,-4.0517,-4.0541,-4.0531,-4.0549,-4.0547,-4.0548,-4.0448,-4.0435,-4.0556,-4.0556,-4.0556,-4.0556,-4.0556,-4.0556,-4.03,-4.0354,-4.0351,-4.041,-4.0417,-4.0457,-4.047,-4.0485,-4.0497,-4.0543,-4.0568,-4.0569,-4.0578,-4.0607,-4.0634,-4.0633,-4.0644,-4.0666,-4.0662,-4.0569,-4.0555,-4.0543,-4.053,-4.0669,-4.0669,-4.0759,-4.076,-4.076]}]]